Volver al catálogo

COSMOS 2251 DEB

ActivoLEO
NORAD 35771·DEBRIS·🇷🇺 Russia

Lanzado Jun 16, 1993 desde Plesetsk Cosmodrome

Loading…

Próximos Pases (próximas 24 horas)

TLE

ActualizadoSource: Space-Track

Época: Sep 14, 2026, 05:21 UTC

1 35771U 93036ARR 26257.22310312  .00006984  00000-0  27872-2 0  9995
2 35771  74.1558 183.9476 0200119  48.3043 313.5030 14.18317287867602

Sigue COSMOS 2251 DEB en tiempo real con AllMySat

Download on the App Store